[[{"header":{"parameterUnit":"m.s-1","parameterCategory":1,"la1":30.2991,"la2":30.254,"lo1":-89.0895,"lo2":-89.0444,"dx":0.0017,"dy":0.0017,"nx":28,"ny":28,"refTime":"2022-11-03T21:00:00:Z","depth":0,"parameterNumber":2,"parameterNumberName":"U-component_of_WINDS"},"data":[0,0,0,0,0,0,0,0,0,0,0,0,0,0,0,0,0,0,0,0,0,0,0,0,0,0,0,0,0,0,0,0,0,0,0,0,0,0,0,0,0,0,0,0,0,0,0,0,0,0,0,0,0,0,0,0,0,0,-0.3892,-0.3892,0,-0.3894,-0.3894,-0.3894,-0.3897,-0.3897,-0.3897,-0.3897,-0.3899,-0.3899,-0.3899,0,0,0,0,0,0,0,0,0,0,0,0,0,-0.389,-0.389,-0.3892,-0.3892,-0.3892,-0.3894,-0.3894,-0.3894,-0.3897,-0.3897,-0.3897,-0.3897,-0.3899,-0.3899,-0.3899,0,0,0,0,0,0,0,0,0,0,0,0,0,-0.3892,-0.389,-0.3892,-0.3894,-0.3894,-0.3894,-0.3894,-0.3894,-0.3897,-0.3897,-0.3897,-0.3897,-0.3899,-0.3899,-0.3899,-0.3898,0,0,-0.3899,-0.3899,0,0,0,0,0,0,0,0,-0.3892,-0.3892,-0.3893,-0.3894,-0.3894,-0.3895,-0.3894,-0.3895,-0.3897,-0.3896,-0.3897,-0.3897,-0.3898,-0.3898,-0.3898,-0.3898,-0.3898,-0.3899,-0.3899,-0.3899,-0.3899,0,0,0,0,0,0,0,-0.3892,-0.3892,-0.3893,-0.3893,-0.3894,-0.3894,-0.3895,-0.3895,-0.3896,-0.3896,-0.3896,-0.3896,-0.3898,-0.3898,-0.3898,-0.3898,-0.3899,-0.3899,-0.3899,-0.3899,-0.3897,-0.3897,0,0,0,0,0,0,-0.3891,-0.3892,-0.3893,-0.3893,-0.3893,-0.3894,-0.3895,-0.3895,-0.3896,-0.3897,-0.3896,-0.3896,-0.3898,-0.3898,-0.3898,-0.3897,-0.3899,-0.3899,-0.3899,-0.3898,-0.3897,-0.3897,0,0,0,0,0,0,-0.3891,-0.3891,-0.3893,-0.3892,-0.3893,-0.3894,-0.3894,-0.3895,-0.3895,-0.3897,-0.3897,-0.3896,-0.3898,-0.3898,-0.3898,-0.3897,-0.3899,-0.3899,-0.3898,-0.3898,-0.3897,-0.3895,0,0,0,0,0,0,-0.3891,-0.3891,-0.3891,-0.3892,-0.3893,-0.3892,-0.3894,-0.3895,-0.3895,-0.3895,-0.3897,-0.3897,-0.3898,-0.3898,-0.3898,-0.3897,-0.3899,-0.3898,-0.3898,-0.3897,-0.3895,-0.3895,-0.3894,0,0,0,0,0,-0.3891,-0.3889,-0.389,-0.3891,-0.3892,-0.3892,-0.3892,-0.3894,-0.3895,-0.3894,-0.3896,-0.3897,-0.3897,-0.3898,-0.3898,-0.3897,-0.3898,-0.3898,-0.3897,-0.3895,-0.3895,-0.3894,0,0,0,0,0,0,-0.3887,-0.389,-0.3891,-0.389,-0.3891,-0.3893,-0.3892,-0.3893,-0.3894,-0.3894,-0.3896,-0.3896,-0.3896,-0.3897,-0.3897,-0.3897,-0.3898,-0.3898,-0.3896,-0.3896,-0.3895,-0.3895,-0.3899,0,0,0,0,0,-0.3886,-0.3886,-0.3889,-0.3888,-0.3888,-0.389,-0.389,-0.3891,-0.3893,-0.3893,-0.3894,-0.3895,-0.3895,-0.3896,-0.3896,-0.3895,-0.3896,-0.3895,-0.3895,-0.3895,-0.3894,-0.3895,-0.3894,-0.3897,-0.3897,-0.3897,0,0,-0.3884,-0.3886,-0.3886,-0.3887,-0.3888,-0.3888,-0.389,-0.389,-0.3891,-0.3893,-0.3893,-0.3894,-0.3895,-0.3895,-0.3895,-0.3895,-0.3894,-0.3894,-0.3894,-0.3894,-0.3894,-0.3894,-0.3894,-0.3897,-0.3897,-0.3897,0,0,-0.3881,-0.3882,-0.3881,-0.3882,-0.3884,-0.3885,-0.3885,-0.3887,-0.3888,-0.3888,-0.389,-0.3891,-0.3891,-0.3892,-0.3893,-0.3891,-0.3892,-0.3891,-0.389,-0.389,-0.389,-0.389,-0.3889,-0.3889,-0.3891,-0.3891,-0.3891,0,-0.3878,-0.3878,-0.3881,-0.3881,-0.3882,-0.3884,-0.3884,-0.3885,-0.3887,-0.3887,-0.3888,-0.3889,-0.389,-0.3891,-0.389,-0.3891,-0.3891,-0.3891,-0.389,-0.3889,-0.3889,-0.3889,-0.3889,-0.3891,-0.3891,-0.3891,-0.3891,0,-0.3875,-0.3876,-0.3875,-0.3877,-0.3878,-0.3877,-0.388,-0.3881,-0.3882,-0.3884,-0.3884,-0.3886,-0.3887,-0.3887,-0.3888,-0.3888,-0.3888,-0.3889,-0.389,-0.3889,-0.3889,-0.3888,-0.3891,-0.3891,-0.3891,-0.3891,0,0,-0.3868,-0.3872,-0.3872,-0.3873,-0.3876,-0.3876,-0.3877,-0.3878,-0.3879,-0.388,-0.388,-0.3882,-0.3883,-0.3884,-0.3885,-0.3885,-0.3884,-0.3887,-0.3887,-0.3886,-0.3884,-0.3883,-0.3883,-0.3886,-0.3886,-0.3885,-0.3884,0,-0.3865,-0.3866,-0.3869,-0.3869,-0.3869,-0.3872,-0.3873,-0.3875,-0.3876,-0.3877,-0.3879,-0.388,-0.3882,-0.3882,-0.3883,-0.3884,-0.3884,-0.3885,-0.3886,-0.3886,-0.3885,-0.3883,-0.3882,-0.388,-0.3884,-0.3884,-0.3884,0,-0.3861,-0.3863,-0.3863,-0.3867,-0.3867,-0.3867,-0.3869,-0.387,-0.3872,-0.3874,-0.3875,-0.3877,-0.3878,-0.388,-0.3881,-0.3881,-0.3882,-0.3883,-0.3883,-0.3883,-0.3885,-0.3883,-0.388,-0.388,-0.3884,-0.3884,-0.3884,0,-0.3857,-0.3859,-0.386,-0.3861,-0.3864,-0.3865,-0.3866,-0.3869,-0.387,-0.3871,-0.3872,-0.3874,-0.3875,-0.3877,-0.3879,-0.388,-0.3881,-0.3882,-0.3882,-0.3882,-0.3881,-0.3881,-0.3879,-0.3882,-0.3882,-0.3882,-0.3882,0,-0.3853,-0.3853,-0.3858,-0.3858,-0.3858,-0.3862,-0.3862,-0.3864,-0.3866,-0.3867,-0.387,-0.3871,-0.3874,-0.3876,-0.3878,-0.3879,-0.3879,-0.3881,-0.3881,-0.388,-0.388,-0.388,-0.3881,-0.3882,-0.3882,-0.3882,-0.3882,0,-0.3847,-0.385,-0.3851,-0.3855,-0.3856,-0.3856,-0.386,-0.386,-0.3863,-0.3864,-0.3864,-0.3868,-0.387,-0.3873,-0.3875,-0.3877,-0.3878,-0.3879,-0.3877,-0.3877,-0.3877,-0.3877,-0.3874,-0.3874,-0.3878,-0.3878,-0.3878,0,-0.3844,-0.3845,-0.3849,-0.385,-0.3851,-0.3853,-0.3854,-0.3858,-0.3859,-0.3862,-0.3863,-0.3865,-0.3867,-0.387,-0.3873,-0.3875,-0.3876,-0.3875,-0.3876,-0.3875,-0.3876,-0.3876,-0.3876,-0.3874,-0.3874,-0.3874,-0.3874,0,-0.3839,-0.3841,-0.3843,-0.3845,-0.3847,-0.3849,-0.3851,-0.3852,-0.3856,-0.3858,-0.386,-0.3861,-0.3864,-0.3867,-0.387,-0.3871,-0.3873,-0.3874,-0.3874,-0.3873,-0.3872,-0.3873,-0.3876,-0.3874,-0.3874,-0.3874,-0.3874,-0.3874,-0.3835,-0.3835,-0.3839,-0.3841,-0.3843,-0.3845,-0.3846,-0.3849,-0.3851,-0.3854,-0.3856,-0.3858,-0.3862,-0.3866,-0.3868,-0.387,-0.387,-0.387,-0.387,-0.387,-0.387,-0.3872,-0.387,-0.387,-0.387,-0.387,-0.387,0,-0.383,-0.3832,-0.3834,-0.3838,-0.384,-0.3842,-0.3845,-0.3846,-0.3848,-0.3851,-0.3853,-0.3856,-0.3859,-0.3862,-0.3865,-0.3866,-0.3867,-0.3867,-0.3866,-0.3867,-0.3869,-0.3869,-0.3866,-0.3866,-0.3866,-0.3866,-0.3866,-0.3866,-0.3827,-0.3829,-0.3831,-0.3834,-0.3836,-0.3839,-0.384,-0.3843,-0.3845,-0.3848,-0.385,-0.3853,-0.3856,-0.3859,-0.3862,-0.3863,-0.3864,-0.3863,-0.3864,-0.3866,-0.3867,-0.3867,-0.3867,-0.3863,-0.3863,-0.3862,-0.3862,-0.3862]},{"header":{"parameterUnit":"m.s-1","parameterCategory":1,"la1":30.2991,"la2":30.254,"lo1":-89.0895,"lo2":-89.0444,"dx":0.0017,"dy":0.0017,"nx":28,"ny":28,"refTime":"2022-11-03T21:00:00:Z","depth":0,"parameterNumber":3,"parameterNumberName":"V-component_of_WINDS"},"data":[0,0,0,0,0,0,0,0,0,0,0,0,0,0,0,0,0,0,0,0,0,0,0,0,0,0,0,0,0,0,0,0,0,0,0,0,0,0,0,0,0,0,0,0,0,0,0,0,0,0,0,0,0,0,0,0,0,0,3.5083,3.5084,0,3.5098,3.5098,3.5098,3.511,3.511,3.511,3.511,3.5125,3.5126,3.5126,0,0,0,0,0,0,0,0,0,0,0,0,0,3.5069,3.507,3.5083,3.5084,3.5084,3.5098,3.5098,3.5098,3.511,3.511,3.511,3.511,3.5125,3.5126,3.5126,0,0,0,0,0,0,0,0,0,0,0,0,0,3.5079,3.507,3.5083,3.5091,3.5092,3.5098,3.5098,3.5098,3.511,3.511,3.511,3.511,3.5125,3.5126,3.5126,3.5125,0,0,3.5127,3.5128,0,0,0,0,0,0,0,0,3.5078,3.5079,3.509,3.5091,3.5092,3.5102,3.5099,3.5108,3.511,3.5103,3.511,3.511,3.5118,3.5119,3.5121,3.5126,3.5127,3.5127,3.5128,3.5128,3.5128,0,0,0,0,0,0,0,3.5078,3.5079,3.5089,3.509,3.5091,3.5095,3.5097,3.5101,3.5109,3.5104,3.5104,3.5106,3.5118,3.5121,3.5121,3.5127,3.5127,3.5128,3.5128,3.5128,3.5138,3.5138,0,0,0,0,0,0,3.5075,3.5078,3.5089,3.509,3.5085,3.5095,3.5097,3.5099,3.5109,3.5111,3.5106,3.5106,3.512,3.5121,3.5122,3.5125,3.5128,3.5128,3.5129,3.5138,3.5138,3.5138,0,0,0,0,0,0,3.5075,3.5076,3.5088,3.5084,3.5086,3.5095,3.5097,3.5099,3.5101,3.5111,3.5113,3.5107,3.512,3.5121,3.5126,3.5126,3.5129,3.5129,3.5138,3.5138,3.5138,3.513,0,0,0,0,0,0,3.5075,3.5076,3.5075,3.5084,3.5086,3.509,3.5097,3.5099,3.5102,3.5103,3.5112,3.5114,3.512,3.5125,3.5126,3.5127,3.5129,3.5138,3.5138,3.5138,3.513,3.513,3.5129,0,0,0,0,0,3.5074,3.5071,3.5074,3.5076,3.5085,3.509,3.5091,3.5099,3.5102,3.5102,3.5109,3.5113,3.5126,3.5125,3.5127,3.5127,3.5138,3.5138,3.5138,3.5131,3.513,3.5129,0,0,0,0,0,0,3.506,3.5072,3.5076,3.5075,3.5082,3.5092,3.5091,3.5097,3.5103,3.5103,3.5113,3.5115,3.5119,3.5123,3.5123,3.513,3.5133,3.5133,3.5127,3.5126,3.5126,3.5125,3.513,0,0,0,0,0,3.5057,3.5059,3.507,3.5069,3.5072,3.5081,3.5084,3.509,3.5097,3.5099,3.5106,3.5113,3.512,3.5123,3.5129,3.5132,3.5136,3.5133,3.5133,3.5132,3.5132,3.5139,3.5139,3.5138,3.5138,3.5138,0,0,3.505,3.5057,3.5058,3.5066,3.5072,3.5076,3.5083,3.5086,3.5091,3.51,3.5105,3.5111,3.512,3.5125,3.5127,3.5129,3.5134,3.5132,3.5132,3.5132,3.5139,3.5139,3.5139,3.5138,3.5138,3.5138,0,0,3.504,3.5044,3.5046,3.5052,3.5061,3.5069,3.5069,3.508,3.5084,3.509,3.5098,3.5104,3.5113,3.5121,3.5125,3.5125,3.5131,3.5126,3.5123,3.513,3.513,3.513,3.5132,3.5133,3.5127,3.5127,3.5127,0,3.503,3.5036,3.5045,3.505,3.5055,3.5065,3.5068,3.5074,3.5084,3.5088,3.509,3.5106,3.5112,3.5121,3.5121,3.5124,3.5127,3.5125,3.5129,3.5129,3.5129,3.5132,3.5133,3.5126,3.5126,3.5126,3.5126,0,3.5026,3.503,3.5031,3.5042,3.5047,3.5051,3.5062,3.5067,3.5074,3.5081,3.509,3.5099,3.5108,3.5111,3.5116,3.5122,3.5123,3.5127,3.513,3.5129,3.5132,3.5133,3.5126,3.5126,3.5126,3.5126,0,0,3.5004,3.5024,3.5024,3.5032,3.5045,3.5049,3.5055,3.5066,3.5071,3.5079,3.5086,3.5096,3.5102,3.5107,3.5114,3.5119,3.5123,3.5123,3.5124,3.5125,3.5134,3.5132,3.5133,3.5127,3.5127,3.5127,3.5134,0,3.4997,3.5008,3.5019,3.5026,3.5033,3.5045,3.5051,3.5061,3.507,3.5078,3.5088,3.5096,3.51,3.5105,3.511,3.5121,3.5125,3.5121,3.5136,3.5136,3.5134,3.5134,3.513,3.5136,3.5135,3.5135,3.5135,0,3.499,3.5,3.5008,3.5026,3.5029,3.5034,3.5047,3.5054,3.5067,3.5074,3.5083,3.5091,3.5101,3.5104,3.5119,3.5116,3.5124,3.5131,3.5131,3.5133,3.5136,3.5138,3.5138,3.5139,3.5136,3.5136,3.5136,0,3.4977,3.4992,3.5,3.5006,3.5025,3.5029,3.5038,3.5051,3.5059,3.5071,3.5076,3.5089,3.5096,3.5107,3.512,3.5121,3.5136,3.5139,3.5143,3.5143,3.5146,3.5145,3.5148,3.5148,3.5148,3.5148,3.5148,0,3.4969,3.4974,3.4995,3.5,3.5008,3.5022,3.5029,3.5039,3.5052,3.5061,3.5073,3.5081,3.5098,3.5109,3.5119,3.5133,3.5135,3.5143,3.5146,3.5142,3.5142,3.5147,3.5148,3.5148,3.5148,3.5148,3.5148,0,3.4954,3.4968,3.4978,3.4998,3.5003,3.5008,3.5025,3.5032,3.5044,3.5055,3.5059,3.5076,3.5091,3.5106,3.5124,3.5132,3.5146,3.5149,3.5141,3.5143,3.5148,3.5148,3.5156,3.5159,3.5155,3.5155,3.5155,0,3.4948,3.4953,3.4974,3.4982,3.499,3.5001,3.501,3.5026,3.5034,3.5053,3.5059,3.5074,3.5087,3.5111,3.5126,3.5142,3.5147,3.5149,3.5149,3.5147,3.515,3.515,3.5152,3.5148,3.5148,3.5148,3.5148,0,3.4938,3.4946,3.4957,3.4973,3.4983,3.4996,3.5009,3.5015,3.5034,3.5044,3.5059,3.507,3.5092,3.5108,3.5127,3.5138,3.5147,3.5148,3.5151,3.5147,3.5144,3.5149,3.5142,3.5148,3.5148,3.5148,3.5148,3.5148,3.4929,3.4935,3.4953,3.4967,3.4979,3.4993,3.5002,3.5015,3.5029,3.5048,3.5057,3.5073,3.5092,3.5118,3.513,3.5144,3.5147,3.5149,3.515,3.5151,3.5152,3.5141,3.5148,3.5148,3.5148,3.5148,3.5148,0,3.4921,3.4934,3.4947,3.4966,3.4979,3.4987,3.5004,3.5014,3.5029,3.5045,3.5059,3.508,3.5098,3.5116,3.5136,3.5144,3.515,3.5149,3.5149,3.5152,3.5147,3.5144,3.5145,3.5145,3.5145,3.5145,3.5145,3.5145,3.4918,3.4931,3.4942,3.4963,3.4976,3.4993,3.5003,3.5016,3.503,3.5053,3.5068,3.508,3.5099,3.5121,3.5139,3.5144,3.5152,3.515,3.5157,3.5152,3.5152,3.5152,3.515,3.5151,3.5151,3.5161,3.5162,3.5162]}]]